HAZ6702 ZSHC-RCSS

Flight info

Callsign HAZ6702
Flight time 1h 25m
Altitude 34100
Route UGAGO8D UGAGO A470 BZ/K0854S1070 R596 DST/K0798S0750 R596 SULEM/N0429F240 R596 BERBA B591 APU APU1E
Aircraft E75L/M-SDE3GILORVW/S

Departure

Time 2026-05-05 02:01
Airport Hangzhou Xiaoshan International Airport (ZSHC)

Arrival

Time 2026-05-05 03:27
Airport Taipei Songshan International Airport (RCSS)
Time Latitude Longitude Altitude Speed Heading
2026-05-05 01:41 30.23969 120.42513 27 ft 0 kts 243°
2026-05-05 01:51 30.23970 120.42516 27 ft 2 kts 243°
2026-05-05 01:52 30.23976 120.42532 27 ft 2 kts 255°
2026-05-05 01:52 30.23978 120.42549 27 ft 2 kts 272°
2026-05-05 01:52 30.23977 120.42561 27 ft 2 kts 284°
2026-05-05 01:52 30.23969 120.42580 27 ft 2 kts 305°
2026-05-05 01:53 30.23959 120.42593 27 ft 2 kts 322°
2026-05-05 01:53 30.23952 120.42599 27 ft 1 kts 332°
2026-05-05 01:53 30.23947 120.42602 27 ft 0 kts 333°
2026-05-05 01:53 30.23947 120.42601 27 ft 0 kts 333°
2026-05-05 01:55 30.23957 120.42596 27 ft 3 kts 333°
2026-05-05 01:55 30.23980 120.42582 27 ft 4 kts 332°
2026-05-05 01:55 30.24013 120.42563 27 ft 8 kts 333°
2026-05-05 01:55 30.24063 120.42534 27 ft 14 kts 333°
2026-05-05 01:56 30.24159 120.42491 27 ft 10 kts 22°
2026-05-05 01:56 30.24188 120.42542 27 ft 9 kts 63°
2026-05-05 01:56 30.24227 120.42628 27 ft 12 kts 62°
2026-05-05 01:56 30.24268 120.42722 27 ft 13 kts 63°
2026-05-05 01:57 30.24316 120.42831 27 ft 16 kts 58°
2026-05-05 01:57 30.24375 120.42947 27 ft 16 kts 65°
2026-05-05 01:57 30.24458 120.42988 27 ft 15 kts 332°
2026-05-05 01:57 30.24560 120.42952 27 ft 15 kts 30°
2026-05-05 01:58 30.24613 120.43059 27 ft 15 kts 64°
2026-05-05 01:58 30.24665 120.43177 27 ft 16 kts 58°
2026-05-05 01:58 30.24722 120.43296 27 ft 17 kts 59°
2026-05-05 01:58 30.24780 120.43435 27 ft 22 kts 63°
2026-05-05 01:59 30.24858 120.43610 27 ft 24 kts 62°
2026-05-05 01:59 30.24938 120.43791 27 ft 25 kts 64°
2026-05-05 01:59 30.25019 120.43973 27 ft 24 kts 62°
2026-05-05 01:59 30.25115 120.44018 27 ft 17 kts 332°
2026-05-05 02:00 30.25195 120.43956 27 ft 10 kts 289°
2026-05-05 02:00 30.25177 120.43895 27 ft 9 kts 241°
2026-05-05 02:00 30.25046 120.43610 27 ft 77 kts 242°
2026-05-05 02:00 30.24699 120.42821 27 ft 140 kts 243°
2026-05-05 02:01 30.24237 120.41717 315 ft 163 kts 241°
2026-05-05 02:01 30.23687 120.40474 889 ft 176 kts 240°
2026-05-05 02:01 30.23110 120.39202 1476 ft 187 kts 240°
2026-05-05 02:01 30.22472 120.37838 2086 ft 195 kts 240°
2026-05-05 02:02 30.21870 120.36454 2835 ft 194 kts 242°
2026-05-05 02:02 30.21277 120.35046 3443 ft 201 kts 242°
2026-05-05 02:02 30.20645 120.33536 3933 ft 214 kts 243°
2026-05-05 02:02 30.19993 120.31921 4285 ft 236 kts 243°
2026-05-05 02:03 30.19236 120.30145 4535 ft 263 kts 239°
2026-05-05 02:03 30.18300 120.28242 4998 ft 280 kts 239°
2026-05-05 02:03 30.17355 120.26221 5775 ft 284 kts 241°
2026-05-05 02:03 30.16446 120.24228 6629 ft 284 kts 241°
2026-05-05 02:04 30.15548 120.22235 7493 ft 283 kts 242°
2026-05-05 02:04 30.14647 120.20227 8290 ft 283 kts 242°
2026-05-05 02:04 30.13635 120.18279 9035 ft 284 kts 234°
2026-05-05 02:04 30.12485 120.16437 9771 ft 286 kts 234°
2026-05-05 02:05 30.11316 120.14563 10471 ft 288 kts 234°
2026-05-05 02:05 30.10159 120.12709 11127 ft 290 kts 234°
2026-05-05 02:05 30.08976 120.10812 11821 ft 291 kts 235°
2026-05-05 02:05 30.07788 120.08909 12476 ft 293 kts 235°
2026-05-05 02:06 30.06597 120.07003 13108 ft 295 kts 236°
2026-05-05 02:06 30.05404 120.05093 13742 ft 297 kts 236°
2026-05-05 02:06 30.04200 120.03166 14364 ft 299 kts 236°
2026-05-05 02:06 30.02996 120.01241 14796 ft 298 kts 236°
2026-05-05 02:07 30.01826 119.99238 14846 ft 305 kts 241°
2026-05-05 02:07 30.00735 119.97039 14872 ft 322 kts 241°
2026-05-05 02:07 29.99617 119.94785 14854 ft 326 kts 241°
2026-05-05 02:07 29.98487 119.92507 14857 ft 327 kts 241°
2026-05-05 02:08 29.97367 119.90251 14862 ft 325 kts 241°
2026-05-05 02:08 29.96247 119.87997 14865 ft 324 kts 242°
2026-05-05 02:08 29.95115 119.85718 14869 ft 325 kts 241°
2026-05-05 02:08 29.94000 119.83476 14871 ft 324 kts 241°
2026-05-05 02:09 29.92874 119.81213 14872 ft 326 kts 241°
2026-05-05 02:09 29.91755 119.78966 14875 ft 324 kts 241°
2026-05-05 02:09 29.90630 119.76709 14877 ft 324 kts 242°
2026-05-05 02:09 29.89510 119.74461 14878 ft 325 kts 241°
2026-05-05 02:10 29.88373 119.72181 14881 ft 324 kts 242°
2026-05-05 02:10 29.87249 119.69928 14884 ft 325 kts 242°
2026-05-05 02:10 29.85945 119.67815 14873 ft 329 kts 223°
2026-05-05 02:10 29.83921 119.66552 14962 ft 343 kts 195°
2026-05-05 02:11 29.81614 119.66312 16075 ft 328 kts 186°
2026-05-05 02:11 29.79395 119.66174 17038 ft 320 kts 186°
2026-05-05 02:11 29.77134 119.66046 17367 ft 332 kts 186°
2026-05-05 02:11 29.74777 119.65892 17649 ft 345 kts 187°
2026-05-05 02:12 29.72369 119.65723 18076 ft 352 kts 186°
2026-05-05 02:12 29.67449 119.65382 19269 ft 354 kts 187°
2026-05-05 02:12 29.64976 119.65211 19864 ft 355 kts 187°
2026-05-05 02:13 29.62504 119.65050 20416 ft 358 kts 186°
2026-05-05 02:13 29.60015 119.64986 20908 ft 361 kts 186°
2026-05-05 02:13 29.57501 119.64925 21384 ft 364 kts 186°
2026-05-05 02:13 29.54967 119.64859 21866 ft 366 kts 187°
2026-05-05 02:14 29.52393 119.64708 22341 ft 367 kts 188°
2026-05-05 02:14 29.49854 119.64552 22840 ft 368 kts 189°
2026-05-05 02:14 29.47307 119.64396 23321 ft 369 kts 189°
2026-05-05 02:14 29.44743 119.64239 23785 ft 370 kts 190°
2026-05-05 02:15 29.42170 119.64081 24257 ft 370 kts 190°
2026-05-05 02:15 29.39571 119.63921 24664 ft 372 kts 190°
2026-05-05 02:15 29.37003 119.63764 25101 ft 372 kts 191°
2026-05-05 02:15 29.34420 119.63606 25474 ft 373 kts 191°
2026-05-05 02:16 29.31834 119.63448 25873 ft 374 kts 191°
2026-05-05 02:16 29.29232 119.63289 26252 ft 374 kts 192°
2026-05-05 02:16 29.26629 119.63130 26624 ft 375 kts 192°
2026-05-05 02:16 29.24012 119.62970 26977 ft 376 kts 192°
2026-05-05 02:17 29.21385 119.62810 27319 ft 377 kts 192°
2026-05-05 02:17 29.18778 119.62650 27633 ft 378 kts 192°
2026-05-05 02:17 29.16136 119.62489 27946 ft 379 kts 193°
2026-05-05 02:17 29.13481 119.62328 28249 ft 380 kts 193°
2026-05-05 02:18 29.10868 119.62169 28581 ft 380 kts 193°
2026-05-05 02:18 29.08216 119.62007 28907 ft 380 kts 193°
2026-05-05 02:18 29.05564 119.61842 29198 ft 380 kts 194°
2026-05-05 02:18 29.02937 119.61677 29423 ft 382 kts 194°
2026-05-05 02:19 29.00261 119.61510 29653 ft 384 kts 193°
2026-05-05 02:19 28.97568 119.61343 29879 ft 385 kts 194°
2026-05-05 02:19 28.94910 119.61177 30082 ft 387 kts 193°
2026-05-05 02:19 28.92181 119.61008 30272 ft 389 kts 193°
2026-05-05 02:20 28.89484 119.60840 30490 ft 390 kts 193°
2026-05-05 02:20 28.86778 119.60672 30694 ft 392 kts 193°
2026-05-05 02:20 28.84040 119.60502 30876 ft 394 kts 193°
2026-05-05 02:20 28.81272 119.60330 31073 ft 395 kts 193°
2026-05-05 02:21 28.78542 119.60162 31261 ft 397 kts 193°
2026-05-05 02:21 28.75761 119.59989 31490 ft 397 kts 193°
2026-05-05 02:21 28.72980 119.59817 31735 ft 396 kts 193°
2026-05-05 02:21 28.70221 119.59647 31969 ft 396 kts 193°
2026-05-05 02:22 28.67474 119.59476 32171 ft 397 kts 193°
2026-05-05 02:22 28.64690 119.59304 32395 ft 397 kts 193°
2026-05-05 02:22 28.61927 119.59133 32608 ft 397 kts 193°
2026-05-05 02:22 28.59166 119.58963 32829 ft 396 kts 194°
2026-05-05 02:23 28.56402 119.58792 33018 ft 397 kts 194°
2026-05-05 02:23 28.53629 119.58621 33219 ft 397 kts 194°
2026-05-05 02:23 28.50893 119.58453 33451 ft 396 kts 194°
2026-05-05 02:23 28.48125 119.58282 33655 ft 396 kts 194°
2026-05-05 02:24 28.45352 119.58112 33890 ft 395 kts 193°
2026-05-05 02:24 28.42621 119.57962 34118 ft 395 kts 193°
2026-05-05 02:24 28.39837 119.57806 34171 ft 399 kts 193°
2026-05-05 02:25 28.34245 119.57496 34195 ft 408 kts 193°
2026-05-05 02:25 28.28466 119.57176 34199 ft 417 kts 193°
2026-05-05 02:26 28.22602 119.56852 34200 ft 425 kts 193°
2026-05-05 02:26 28.16604 119.57533 34207 ft 450 kts 175°
2026-05-05 02:26 28.13596 119.58763 34210 ft 462 kts 165°
2026-05-05 02:27 28.10762 119.60547 34213 ft 475 kts 156°
2026-05-05 02:27 28.08129 119.62874 34215 ft 487 kts 147°
2026-05-05 02:27 28.05757 119.65724 34217 ft 501 kts 137°
2026-05-05 02:28 28.02160 119.72621 34225 ft 521 kts 118°
2026-05-05 02:28 28.00377 119.80645 34226 ft 535 kts 99°
2026-05-05 02:29 27.99770 119.89067 34231 ft 531 kts 106°
2026-05-05 02:29 27.97406 119.96833 34234 ft 517 kts 125°
2026-05-05 02:30 27.94473 120.04304 34230 ft 522 kts 117°
2026-05-05 02:30 27.91925 120.11971 34218 ft 523 kts 117°
2026-05-05 02:31 27.89379 120.19686 34229 ft 522 kts 117°
2026-05-05 02:31 27.86838 120.27375 34230 ft 523 kts 117°
2026-05-05 02:32 27.84294 120.35058 34227 ft 524 kts 117°
2026-05-05 02:32 27.81743 120.42745 34216 ft 522 kts 117°
2026-05-05 02:33 27.79198 120.50397 34218 ft 522 kts 117°
2026-05-05 02:33 27.76626 120.58115 34217 ft 521 kts 117°
2026-05-05 02:34 27.74471 120.65901 34221 ft 530 kts 105°
2026-05-05 02:34 27.73098 120.74097 34208 ft 530 kts 106°
2026-05-05 02:35 27.71700 120.82250 34203 ft 529 kts 106°
2026-05-05 02:35 27.70298 120.90384 34209 ft 529 kts 106°
2026-05-05 02:36 27.68883 120.98562 34210 ft 529 kts 107°
2026-05-05 02:36 27.67475 121.06676 34207 ft 528 kts 107°
2026-05-05 02:37 27.66057 121.14813 34213 ft 530 kts 106°
2026-05-05 02:37 27.64635 121.22942 34209 ft 528 kts 106°
2026-05-05 02:38 27.63208 121.31075 34218 ft 530 kts 106°
2026-05-05 02:38 27.61775 121.39217 34218 ft 530 kts 106°
2026-05-05 02:39 27.60343 121.47317 34215 ft 528 kts 106°
2026-05-05 02:39 27.58905 121.55424 34221 ft 528 kts 107°
2026-05-05 02:40 27.57511 121.63520 34218 ft 528 kts 106°
2026-05-05 02:40 27.56125 121.71655 34199 ft 528 kts 106°
2026-05-05 02:41 27.54737 121.79761 34199 ft 530 kts 107°
2026-05-05 02:41 27.53343 121.87878 34204 ft 530 kts 106°
2026-05-05 02:42 27.51940 121.96021 34206 ft 528 kts 107°
2026-05-05 02:42 27.50538 122.04122 34203 ft 528 kts 107°
2026-05-05 02:43 27.49134 122.12210 34194 ft 530 kts 106°
2026-05-05 02:43 27.47717 122.20347 34207 ft 529 kts 107°
2026-05-05 02:44 27.46314 122.28381 34095 ft 510 kts 107°
2026-05-05 02:44 27.44920 122.36309 34113 ft 522 kts 107°
2026-05-05 02:45 27.43850 122.44454 34121 ft 537 kts 96°
2026-05-05 02:45 27.43876 122.52856 34118 ft 538 kts 94°
2026-05-05 02:46 27.43867 122.61266 34119 ft 538 kts 94°
2026-05-05 02:46 27.43456 122.69631 34106 ft 528 kts 107°
2026-05-05 02:47 27.41193 122.77268 34109 ft 511 kts 126°
2026-05-05 02:47 27.39355 122.80679 34116 ft 500 kts 135°
2026-05-05 02:47 27.37211 122.83688 34113 ft 493 kts 139°
2026-05-05 02:48 27.32681 122.89459 34104 ft 482 kts 148°
2026-05-05 02:48 27.30074 122.91774 34112 ft 468 kts 157°
2026-05-05 02:48 27.27302 122.93510 34119 ft 452 kts 167°
2026-05-05 02:48 27.24355 122.94691 34113 ft 441 kts 176°
2026-05-05 02:49 27.21410 122.95269 34116 ft 427 kts 185°
2026-05-05 02:49 27.18402 122.95844 34110 ft 441 kts 176°
2026-05-05 02:49 27.15437 122.96854 34109 ft 443 kts 176°
2026-05-05 02:49 27.12458 122.97450 34113 ft 427 kts 186°
2026-05-05 02:50 27.09546 122.97453 34114 ft 411 kts 195°
2026-05-05 02:50 27.04004 122.96334 34108 ft 401 kts 204°
2026-05-05 02:50 27.01430 122.95249 34116 ft 388 kts 214°
2026-05-05 02:51 26.99155 122.93671 34110 ft 379 kts 224°
2026-05-05 02:51 26.95037 122.89933 34106 ft 381 kts 223°
2026-05-05 02:52 26.90761 122.86462 34099 ft 382 kts 222°
2026-05-05 02:52 26.86386 122.82981 34100 ft 383 kts 221°
2026-05-05 02:53 26.82049 122.79542 34106 ft 383 kts 221°
2026-05-05 02:53 26.77678 122.76081 34095 ft 385 kts 222°
2026-05-05 02:54 26.73301 122.72618 34100 ft 385 kts 221°
2026-05-05 02:54 26.68882 122.69125 34092 ft 386 kts 221°
2026-05-05 02:55 26.64494 122.65659 34090 ft 385 kts 221°
2026-05-05 02:55 26.60128 122.62212 34085 ft 385 kts 221°
2026-05-05 02:56 26.55735 122.58749 34089 ft 385 kts 221°
2026-05-05 02:56 26.51348 122.55292 34085 ft 387 kts 221°
2026-05-05 02:57 26.46940 122.51822 34081 ft 386 kts 221°
2026-05-05 02:57 26.42542 122.48364 34074 ft 387 kts 221°
2026-05-05 02:58 26.38106 122.44878 34074 ft 388 kts 221°
2026-05-05 02:58 26.33674 122.41401 34078 ft 388 kts 221°
2026-05-05 02:59 26.29264 122.37942 34074 ft 389 kts 222°
2026-05-05 02:59 26.24822 122.34463 34049 ft 388 kts 221°
2026-05-05 02:59 26.22638 122.32755 33932 ft 383 kts 221°
2026-05-05 03:00 26.20436 122.31030 33796 ft 388 kts 221°
2026-05-05 03:00 26.18191 122.29274 33660 ft 389 kts 221°
2026-05-05 03:00 26.15994 122.27557 33523 ft 390 kts 221°
2026-05-05 03:00 26.13771 122.25820 33042 ft 391 kts 221°
2026-05-05 03:01 26.11543 122.24111 32642 ft 389 kts 221°
2026-05-05 03:01 26.09283 122.22379 32208 ft 391 kts 220°
2026-05-05 03:01 26.07062 122.20678 31775 ft 389 kts 220°
2026-05-05 03:01 26.04818 122.18960 31337 ft 387 kts 220°
2026-05-05 03:02 26.02614 122.17274 30910 ft 384 kts 220°
2026-05-05 03:02 26.00439 122.15608 30484 ft 382 kts 220°
2026-05-05 03:02 25.98229 122.13917 30062 ft 380 kts 220°
2026-05-05 03:02 25.96077 122.12274 29647 ft 376 kts 220°
2026-05-05 03:03 25.93917 122.10623 29237 ft 375 kts 220°
2026-05-05 03:03 25.91783 122.08993 28822 ft 372 kts 219°
2026-05-05 03:03 25.89658 122.07371 28409 ft 372 kts 219°
2026-05-05 03:03 25.87522 122.05740 28001 ft 371 kts 219°
2026-05-05 03:04 25.85396 122.04120 27589 ft 371 kts 219°
2026-05-05 03:04 25.83282 122.02508 27179 ft 369 kts 219°
2026-05-05 03:04 25.81177 122.00904 26767 ft 367 kts 219°
2026-05-05 03:04 25.79051 121.99284 26352 ft 367 kts 219°
2026-05-05 03:05 25.76960 121.97692 25948 ft 365 kts 219°
2026-05-05 03:05 25.74876 121.96107 25506 ft 363 kts 219°
2026-05-05 03:05 25.72792 121.94521 25101 ft 362 kts 219°
2026-05-05 03:05 25.70746 121.92946 24707 ft 360 kts 219°
2026-05-05 03:06 25.68686 121.91359 24306 ft 358 kts 219°
2026-05-05 03:06 25.66655 121.89795 23910 ft 356 kts 219°
2026-05-05 03:06 25.64621 121.88229 23518 ft 354 kts 219°
2026-05-05 03:06 25.62593 121.86666 23123 ft 352 kts 219°
2026-05-05 03:07 25.60587 121.85122 22729 ft 351 kts 219°
2026-05-05 03:07 25.58612 121.83601 22357 ft 349 kts 219°
2026-05-05 03:07 25.56609 121.82059 21969 ft 348 kts 219°
2026-05-05 03:07 25.54648 121.80551 21587 ft 346 kts 218°
2026-05-05 03:08 25.52660 121.79022 21196 ft 345 kts 219°
2026-05-05 03:08 25.50704 121.77519 20820 ft 343 kts 219°
2026-05-05 03:08 25.48736 121.76008 20437 ft 342 kts 218°
2026-05-05 03:08 25.46780 121.74506 20056 ft 339 kts 219°
2026-05-05 03:09 25.44840 121.73015 19710 ft 341 kts 220°
2026-05-05 03:09 25.42900 121.71526 19283 ft 341 kts 218°
2026-05-05 03:09 25.40960 121.70038 18934 ft 339 kts 218°
2026-05-05 03:09 25.39029 121.68557 18558 ft 338 kts 218°
2026-05-05 03:10 25.37105 121.67083 18167 ft 336 kts 219°
2026-05-05 03:10 25.35195 121.65621 17815 ft 337 kts 219°
2026-05-05 03:10 25.33256 121.64136 17422 ft 334 kts 218°
2026-05-05 03:10 25.31383 121.62703 17070 ft 330 kts 219°
2026-05-05 03:11 25.29486 121.61249 16702 ft 330 kts 219°
2026-05-05 03:11 25.27590 121.59800 16308 ft 329 kts 218°
2026-05-05 03:11 25.25726 121.58374 15940 ft 326 kts 218°
2026-05-05 03:11 25.23863 121.56950 15587 ft 326 kts 219°
2026-05-05 03:12 25.22016 121.55539 15231 ft 326 kts 219°
2026-05-05 03:12 25.20153 121.54116 14867 ft 323 kts 219°
2026-05-05 03:12 25.18311 121.52710 14517 ft 321 kts 219°
2026-05-05 03:12 25.16399 121.51401 14155 ft 322 kts 214°
2026-05-05 03:13 25.14460 121.50179 13794 ft 319 kts 215°
2026-05-05 03:13 25.12539 121.48965 13452 ft 319 kts 214°
2026-05-05 03:13 25.10628 121.47755 13099 ft 317 kts 214°
2026-05-05 03:13 25.08722 121.46549 12745 ft 315 kts 214°
2026-05-05 03:14 25.06816 121.45341 12394 ft 315 kts 214°
2026-05-05 03:14 25.04927 121.44146 12043 ft 314 kts 214°
2026-05-05 03:14 25.03021 121.42939 11693 ft 313 kts 214°
2026-05-05 03:14 25.01153 121.41758 11345 ft 308 kts 214°
2026-05-05 03:15 24.99316 121.40597 11010 ft 301 kts 213°
2026-05-05 03:15 24.97513 121.39458 10679 ft 295 kts 213°
2026-05-05 03:15 24.95738 121.38336 10353 ft 287 kts 213°
2026-05-05 03:15 24.94031 121.37257 10041 ft 281 kts 213°
2026-05-05 03:16 24.92346 121.36194 9734 ft 276 kts 213°
2026-05-05 03:16 24.90676 121.35139 9439 ft 275 kts 213°
2026-05-05 03:16 24.89043 121.34085 9144 ft 272 kts 218°
2026-05-05 03:16 24.87907 121.32474 8874 ft 269 kts 251°
2026-05-05 03:17 24.87788 121.30426 8462 ft 277 kts 280°
2026-05-05 03:17 24.88702 121.28565 7962 ft 280 kts 306°
2026-05-05 03:17 24.89941 121.26958 7585 ft 274 kts 307°
2026-05-05 03:17 24.91165 121.25399 7235 ft 264 kts 307°
2026-05-05 03:18 24.92341 121.23912 6951 ft 252 kts 307°
2026-05-05 03:18 24.93482 121.22489 6711 ft 245 kts 312°
2026-05-05 03:18 24.94993 121.21645 6445 ft 248 kts 352°
2026-05-05 03:18 24.96684 121.21967 6074 ft 255 kts 30°
2026-05-05 03:19 24.99186 121.24598 5419 ft 244 kts 47°
2026-05-05 03:19 25.00331 121.25897 5212 ft 230 kts 47°
2026-05-05 03:19 25.01436 121.27146 4911 ft 226 kts 47°
2026-05-05 03:20 25.02516 121.28365 4640 ft 220 kts 47°
2026-05-05 03:20 25.03527 121.29504 4490 ft 194 kts 46°
2026-05-05 03:20 25.04430 121.30522 4197 ft 178 kts 46°
2026-05-05 03:20 25.05274 121.31473 3966 ft 168 kts 46°
2026-05-05 03:21 25.06093 121.32397 3801 ft 168 kts 47°
2026-05-05 03:21 25.06909 121.33317 3641 ft 169 kts 47°
2026-05-05 03:21 25.07530 121.34376 3413 ft 165 kts 81°
2026-05-05 03:21 25.07575 121.35580 3212 ft 151 kts 95°
2026-05-05 03:22 25.07550 121.36705 2981 ft 142 kts 95°
2026-05-05 03:22 25.07523 121.37769 2807 ft 137 kts 95°
2026-05-05 03:22 25.07494 121.38823 2649 ft 137 kts 94°
2026-05-05 03:22 25.07464 121.39871 2488 ft 136 kts 94°
2026-05-05 03:23 25.07434 121.40900 2319 ft 134 kts 93°
2026-05-05 03:23 25.07403 121.41909 2138 ft 131 kts 92°
2026-05-05 03:23 25.07373 121.42909 1970 ft 128 kts 91°
2026-05-05 03:23 25.07343 121.43883 1804 ft 127 kts 91°
2026-05-05 03:24 25.07314 121.44841 1629 ft 124 kts 91°
2026-05-05 03:24 25.07282 121.45802 1463 ft 125 kts 91°
2026-05-05 03:24 25.07250 121.46765 1297 ft 126 kts 92°
2026-05-05 03:24 25.07217 121.47732 1126 ft 126 kts 92°
2026-05-05 03:25 25.07185 121.48695 960 ft 126 kts 92°
2026-05-05 03:25 25.07163 121.49662 795 ft 126 kts 91°
2026-05-05 03:25 25.07145 121.50622 630 ft 125 kts 92°
2026-05-05 03:25 25.07123 121.51597 514 ft 129 kts 91°
2026-05-05 03:26 25.07087 121.52576 317 ft 129 kts 94°
2026-05-05 03:26 25.07028 121.53558 154 ft 128 kts 94°
2026-05-05 03:26 25.06988 121.54527 27 ft 122 kts 92°
2026-05-05 03:26 25.06957 121.55277 22 ft 75 kts 90°
2026-05-05 03:27 25.06868 121.55643 24 ft 26 kts 121°
2026-05-05 03:27 25.06791 121.55718 26 ft 10 kts 155°
2026-05-05 03:27 25.06725 121.55737 27 ft 9 kts 166°
2026-05-05 03:27 25.06665 121.55753 29 ft 8 kts 169°
2026-05-05 03:28 25.06609 121.55769 29 ft 8 kts 162°
2026-05-05 03:28 25.06557 121.55784 29 ft 2 kts 165°
2026-05-05 03:28 25.06553 121.55785 30 ft 0 kts 165°